Regional Weather Roundup
Issued by NWS

Home | Current Version | Previous Version | Graphics & Text | Print | Product List | Glossary On
Versions: 1 2 3 4 5 6 7 8 9 10 11 12 13 14 15 16 17 18 19 20 21 22 23 24 25 26 27 28 29 30 31 32 33 34 35 36 37 38 39 40 41 42 43 44 45 46 47 48 49 50
425
ASUS44 KJAN 220810
RWRMS

MISSISSIPPI HOURLY WEATHER ROUNDUP
NATIONAL WEATHER SERVICE JACKSON MS
300 AM CDT TUE JUL 22 2014

NOTE: "FAIR: INDICATES FEW OR NO CLOUDS BELOW 12,000 FEET WITH NO
SIGNIFICANT WEATHER AND/OR OBSTRUCTIONS TO VISIBILITY.

MSZ001>002-007>008-010>013-018>021-025>028-034>036-220900-
NORTHWEST MISSISSIPPI

CITY           SKY/WX    TMP DP  RH WIND       PRES   REMARKS
CLARKSDALE     FAIR      68  68 100 CALM      30.06S
CLEVELAND      FAIR      69  69 100 CALM      30.05R
GREENWOOD      CLEAR     68  66  93 CALM      30.04S FOG
GREENVILLE     CLEAR     71  69  93 N3        30.04S
GRENADA        FAIR      66  66 100 CALM      30.05S
OLIVE BRANCH   CLEAR     68  68 100 CALM      30.07S
OXFORD         FAIR      68  66  94 CALM      30.07S
TUNICA         SUNNY     68  68 100 CALM      30.07S FOG
$$

MSZ003>006-009-014>017-022>024-029>033-037>039-220900-
NORTHEAST MISSISSIPPI

CITY           SKY/WX    TMP DP  RH WIND       PRES   REMARKS
BELMONT        FAIR      71  70  98 CALM      30.06S FOG
COLUMBUS AFB   PTCLDY    72  72 100 CALM      30.03F
CORINTH        FOG       70  68  94 CALM      30.05S VSB 1/2
GOLDN TRIANGLE MOCLDY    72  66  83 CALM      30.04S
STARKVILLE     CLOUDY    72  68  88 CALM      30.03F
TUPELO         CLEAR     73  68  84 CALM      30.04S
$$

MSZ040-058-220900-
CENTRAL MISSISSIPPI

CITY           SKY/WX    TMP DP  RH WIND       PRES   REMARKS
JACKSON INTL   CLEAR     72  69  90 CALM      30.02S
JACKSON HAWKNS CLEAR     74  69  85 CALM      30.03S
MERIDIAN KEY   MOCLDY    72  69  90 CALM      30.01F
MERIDIAN NAS   MOCLDY    73  70  90 CALM      30.02S
RAYMOND        FAIR      70  64  83 CALM      30.03S HAZE
VICKSBURG      CLEAR     70  68  93 NW3       30.03S
$$

MSZ059>079-220900-
SOUTH MISSISSIPPI

CITY           SKY/WX    TMP DP  RH WIND       PRES   REMARKS
BROOKHAVEN     FAIR      70  70 100 CALM      30.04S FOG
COLUMBIA       PTSUNNY   70  70 100 CALM      30.00S FOG
HATTIESBURG    PTCLDY    74  72  93 CALM      30.00F
MCCOMB         CLEAR     71  68  90 N3        30.02S
NATCHEZ        CLEAR     70  66  88 CALM      30.03F
PINE BELT      PTCLDY    73  70  88 CALM      30.02R
$$

MSZ080>082-220900-
COASTAL MISSISSIPPI

CITY           SKY/WX    TMP DP  RH WIND       PRES   REMARKS
BILOXI         CLEAR     77  73  85 VRB1      29.98F
PASCAGOULA     PTCLDY    74  72  93 CALM      29.98S
GULFPORT       CLEAR     77  71  82 CALM      29.98F
$$



USA.gov is the U.S. government's official web portal to all federal, state and local government web resources and services.